FENGYUN 1C DEB

Satellite information

Favourite Embed

Satellite Type and Status

DEBRISIN ORBIT

Key statistics

Satellite FENGYUN 1C DEB at a glance.

Uptime

9666

Days in orbit

Revolutions

≈ 14.4

Per day

Orbit

SSO

Sun Synchronous Orbit

Inclination

98.9

Latest

Satellite identification and parameters

Extended collection of information and parameters for FENGYUN 1C DEB.

Object identification

Identified? True

Debris? True

Object name: FENGYUN 1C DEB

International designator: 1999-025BQW

Object number (NORAD): 31342

Object ID (CCSDS): 31342

Country: PEOPLES REPUBLIC OF CHINA (PRC)

Current information (Y/N): Y

RCS size: SMALL

Orbital parameters

Period: 100.231 minutes

Inclination: 98.9261 deg

SMA: 7147.628 km

Apoapsis: 850.047 km

Periapsis: 688.939 km

RAAN: 250.0554 deg

Eccentricy: 0.01127008

Argument of periapsis: 10.4208 deg

Mean anomaly: 349.9275 deg

Mean motion: 14.36679399 rev/day

Mean motion (dot): 0.00001015 rev/day2

B* drag term: 0.00033638707 1/REarth

Two-line elements (TLE)

Creation date: Oct. 23, 2025, 2:46 a.m.

Reference frame: TEME

Reference center: EARTH

Epoch: Oct. 22, 2025, 4:45 p.m. UTC

TLE line 0: 0 FENGYUN 1C DEB

TLE line 1: 1 31342U 99025BQW 25295.69855996 .00001015 00000-0 33639-3 0 9992

TLE line 2: 2 31342 98.9261 250.0554 0112701 10.4208 349.9275 14.36679399971584

Live tracking on map

Real-time ground track for satellite FENGYUN 1C DEB.

In-orbit conjunctions

A list of the most updated potential collisions computed for object FENGYUN 1C DEB.

Target Orbit TCA Probability of collision Miss distance Type
CZ-6A DEB LEO 2025-01-24 12:54:57 0.0001659837 219.0 (m) DEBRIS
IRIDIUM 911 LEO 2025-01-05 14:32:23 0.00394561 132.0 (m) PAYLOAD

Associated space launch

Chinese polar orbiting meteorological satellite

FENGYUN 1C DEB was lifted into orbit during the mission ‘Long March 4B | Feng Yun 1C’, on board a Long March 4B space rocket.

The launch took place on May 10, 1999, 1:33 a.m. from Launch Complex 7.

For more information about the launch, click the button.

Launch to space Long March 4B | Feng Yun 1C
Long March 4B | Feng Yun 1C

Agency: N/A

Status: Launch Successful

Launch date: May 10, 1999, 1:33 a.m. UTC

Rocket: Long March 4B

Launch pad: Launch Complex 7

Location: Taiyuan Satellite Launch Center, People's Republic of China

...

Latest news about this satellite

There are no fresh news available about this satellite. Check back as we update our databases every day.


Newsletter sign-up

Weekly statistics, charts and insights to help you stay on top of the space industry.